DW9417 Weather Reports


Display with metric or nautical units.
time (UTC)temp
F
wind
direction
speed
MPH
gust
MPH
rain 1hr
in
rain 24hr
in
rain mn
in
humidity
%
barometer
mb
20260831091514 65 298 2.0 8.0 0.00 0.01 0.01 63 1018.9
20260831090014 65 263 4.0 9.0 0.00 0.01 0.01 64 1018.7
20260831084513 66 250 2.0 7.0 0.00 0.01 0.01 68 1018.6
20260831083013 66 277 3.0 8.0 0.00 0.01 0.01 68 1018.4
20260831081521 67 283 5.0 11.0 0.00 0.01 0.01 67 1018.5
20260831080012 68 269 5.0 10.0 0.00 0.01 0.01 65 1018.3
20260831074516 70 279 4.0 10.0 0.00 0.01 0.01 62 1018.1
20260831073011 69 322 4.0 12.0 0.00 0.01 0.01 63 1018.2
20260831071510 69 275 4.0 9.0 0.00 0.01 0.01 62 1018.1
20260831070020 69 267 3.0 7.0 0.00 0.01 0.01 61 1017.9
20260831064509 70 285 6.0 14.0 0.00 0.01 0.01 60 1017.8
20260831063009 70 329 7.0 14.0 0.00 0.01 0.01 60 1017.6
20260831061507 70 296 8.0 16.0 0.00 0.01 0.01 57 1017.7
20260831060006 70 269 5.0 14.0 0.00 0.01 0.01 58 1017.7
20260831054506 70 298 8.0 15.0 0.00 0.01 0.01 58 1017.7
20260831053005 71 304 5.0 11.0 0.00 0.01 0.01 58 1017.8
20260831051502 70 269 4.0 17.0 0.00 0.01 0.01 63 1017.6
20260831050100 69 292 4.0 16.0 0.00 0.01 0.01 61 1017.8
20260831044558 70 281 5.0 9.0 0.00 0.01 0.01 61 1017.8
20260831043057 68 276 4.0 13.0 0.00 0.01 0.01 66 1018.1
20260831041555 67 292 9.0 14.0 0.00 0.01 0.01 64 1018.2
20260831040055 69 288 5.0 12.0 0.00 0.01 0.01 62 1018.2
20260831034553 69 297 7.0 13.0 0.00 0.01 0.01 62 1018.4
20260831033051 68 275 5.0 12.0 0.00 0.01 0.01 65 1018.5
20260831031548 67 323 6.0 13.0 0.00 0.01 0.01 67 1018.7
20260831030045 67 300 3.0 12.0 0.00 0.01 0.01 71 1018.9
20260831024554 66 279 2.0 7.0 0.00 0.01 0.01 74 1018.9
20260831023044 66 224 2.0 5.0 0.00 0.01 0.01 74 1018.9
20260831021551 64 302 2.0 7.0 0.00 0.01 0.01 80 1019.0
20260831020035 63 254 3.0 7.0 0.00 0.01 0.01 84 1019.0
20260831014533 63 311 4.0 9.0 0.00 0.01 0.01 88 1019.1
20260831013030 61 267 4.0 8.0 0.00 0.01 0.01 94 1019.1
20260831011526 60 234 2.0 6.0 0.00 0.01 0.01 95 1019.1
20260831010041 59 288 1.0 4.0 0.00 0.01 0.01 95 1019.2
20260831004519 56 40 0.0 2.0 0.00 0.01 0.01 95 1019.3
20260831003015 54 40 0.0 0.0 0.00 0.01 0.01 95 1019.4
20260831001523 52 36 0.0 0.0 0.00 0.01 0.01 94 1019.5
20260831000007 49 37 0.0 0.0 0.00 0.01 0.01 94 1019.5
20260830234504 47 36 0.0 0.0 0.00 0.01 0.01 94 1019.5
20260830233101 46 37 0.0 0.0 0.00 0.01 0.01 94 1019.5
20260830231557 44 40 0.0 0.0 0.00 0.01 0.01 93 1019.4
20260830230056 44 30 0.0 0.0 0.00 0.01 0.01 93 1019.3
20260830224601 44 30 0.0 0.0 0.00 0.02 0.01 92 1019.0
20260830223051 44 30 0.0 0.0 0.00 0.02 0.01 93 1018.8
20260830221549 45 30 0.0 0.0 0.00 0.02 0.01 93 1018.6
20260830220056 44 30 0.0 0.0 0.00 0.02 0.01 92 1018.4
20260830214554 45 39 0.0 0.0 0.00 0.02 0.01 92 1018.3
20260830213045 45 39 0.0 0.0 0.00 0.02 0.01 93 1018.2
20260830211543 45 39 0.0 0.0 0.00 0.02 0.01 92 1018.2
20260830210041 46 40 0.0 0.0 0.00 0.02 0.01 92 1018.1
20260830204540 46 40 0.0 0.0 0.00 0.02 0.01 92 1018.1
20260830203038 46 40 0.0 0.0 0.00 0.02 0.01 92 1018.2
20260830201535 46 37 0.0 0.0 0.00 0.02 0.01 92 1018.2
20260830200035 47 40 0.0 0.0 0.00 0.02 0.01 93 1018.3
20260830194535 47 40 0.0 0.0 0.01 0.02 0.01 93 1018.4
20260830193034 47 40 0.0 0.0 0.01 0.02 0.01 92 1018.4
20260830191532 47 40 0.0 0.0 0.01 0.02 0.01 92 1018.4
20260830190033 47 40 0.0 0.0 0.01 0.02 0.01 92 1018.5
20260830184529 47 40 0.0 0.0 0.00 0.01 0.00 92 1018.5
20260830183028 47 40 0.0 0.0 0.00 0.01 0.00 92 1018.5
20260830181535 47 40 0.0 0.0 0.00 0.01 0.00 91 1018.3
20260830180046 48 40 0.0 0.0 0.00 0.01 0.00 91 1018.3
20260830174527 48 38 0.0 0.0 0.00 0.01 0.00 91 1018.4
20260830173046 49 38 0.0 0.0 0.00 0.01 0.00 91 1018.3
20260830171521 49 38 0.0 0.0 0.00 0.01 0.00 92 1018.5
20260830170019 49 38 0.0 0.0 0.00 0.01 0.00 92 1018.5
20260830164518 48 38 0.0 0.0 0.00 0.01 0.00 91 1018.6
20260830163016 48 38 0.0 0.0 0.00 0.01 0.00 90 1018.6
20260830161512 49 40 0.0 0.0 0.00 0.01 0.00 90 1018.7
20260830160010 50 40 0.0 0.0 0.00 0.01 0.00 90 1018.8
20260830154508 50 37 0.0 0.0 0.00 0.01 0.01 91 1018.8
20260830153007 50 38 0.0 0.0 0.00 0.01 0.01 90 1018.8
20260830151504 51 38 0.0 0.0 0.00 0.01 0.01 91 1018.9
20260830150004 51 38 0.0 0.0 0.00 0.01 0.01 90 1019.0
20260830144503 52 39 0.0 0.0 0.00 0.01 0.01 90 1019.0
20260830143002 52 39 0.0 0.0 0.00 0.01 0.01 90 1019.1
20260830141501 52 39 0.0 0.0 0.00 0.01 0.01 90 1019.1
20260830140001 53 39 0.0 0.0 0.00 0.01 0.01 90 1019.2
20260830134604 53 39 0.0 0.0 0.00 0.01 0.01 90 1019.3
20260830133103 53 39 0.0 0.0 0.00 0.01 0.01 89 1019.3
20260830131615 54 39 0.0 0.0 0.00 0.01 0.01 89 1019.3
20260830130104 54 39 0.0 0.0 0.00 0.01 0.01 89 1019.3
20260830124559 55 40 0.0 0.0 0.00 0.01 0.01 88 1019.3
20260830123059 56 40 0.0 0.0 0.00 0.01 0.01 88 1019.3
20260830121557 56 39 0.0 0.0 0.00 0.01 0.01 89 1019.2
20260830120101 56 40 0.0 0.0 0.00 0.01 0.01 88 1019.1
20260830114603 57 38 0.0 0.0 0.00 0.01 0.01 87 1019.0
20260830113056 57 40 0.0 0.0 0.00 0.01 0.01 87 1019.0
20260830111555 58 40 0.0 0.0 0.00 0.01 0.01 86 1018.8
20260830110115 59 40 0.0 0.0 0.00 0.01 0.01 85 1018.8
20260830104556 61 40 0.0 0.0 0.00 0.01 0.01 82 1018.5
20260830103054 63 40 0.0 0.0 0.00 0.01 0.01 79 1018.4
20260830101552 66 40 0.0 0.0 0.00 0.01 0.01 79 1018.3
20260830100052 68 38 0.0 0.0 0.00 0.01 0.01 74 1018.3
20260830094551 69 40 0.0 0.0 0.00 0.01 0.01 73 1018.1
20260830093116 71 40 0.0 0.0 0.00 0.01 0.01 70 1018.0